Anaktuvuk Pass, AK

9:59 AM AKDT on June 27, 2017 (GMT -0800)
Anaktuvuk Pass

Weather History for PAKP - February, 2013

Change the Weather History Date:

Friday, February 22, 2013

  Actual Average Record
Temperature  
Mean Temperature -37 °F -  
Max Temperature -34 °F 0 °F 28 °F (2016)
Min Temperature -40 °F -12 °F -40 °F (2013)
Degree Days  
Heating Degree Days 102    
Moisture  
Dew Point -    
Average Humidity    
Maximum Humidity    
Minimum Humidity    
Precipitation  
Precipitation 0.00 in - - ()
Sea Level Pressure  
Sea Level Pressure 29.53 in    
Wind  
Wind Speed 14 mph (NNE)    
Max Wind Speed 17 mph    
Max Gust Speed 21 mph    
Visibility 3 miles    
Events      
Averages and records for this station are not official NWS values.
T = Trace of Precipitation, MM = Missing Value Source: NWS Daily Summary

Daily Weather History Graph

Daily Weather History Graph

Search for Another Location

Airport or City:

Trip Planner

Search our weather history database for the weather conditions in past years. The results will help you decide how hot, cold, wet, or windy it might be!

Date:

Astronomy

Feb. 22, 2013 Rise Set
Actual Time 8:53 AM AKST 5:48 PM AKST
Civil Twilight 7:55 AM AKST 6:46 PM AKST
Nautical Twilight 6:50 AM AKST 7:51 PM AKST
Astronomical Twilight 5:45 AM AKST 8:58 PM AKST
Moon 2:08 PM AKST (2/22) 7:52 AM AKST (2/22)
Length of Visible Light 10h 51m
Length of Day
8h 54m
Waxing Gibbous, 91% of the Moon is Illuminated
Feb 22
Waxing Gibbous
Feb 25
Full
Mar 4
Last Quarter
Mar 11
New
Mar 19
First Quarter

Hourly Weather History & Observations

Time (AKST) Temp. Windchill Dew Point Humidity Pressure Visibility Wind Dir Wind Speed Gust Speed Precip Events Conditions
12:16 AM -38.2 °F -69.2 °F - N/A% 29.51 in 0.8 mi NNE 16.1 mph - N/A   Overcast
12:36 AM -38.2 °F -68.3 °F - N/A% 29.52 in 1.5 mi NNE 15.0 mph - N/A   Overcast
12:56 AM -40.0 °F -70.6 °F - N/A% 29.52 in 2.5 mi NNE 15.0 mph - N/A   Overcast
1:16 AM -40.0 °F -70.6 °F - N/A% 29.50 in 1.8 mi NE 15.0 mph 19.6 mph N/A   Overcast
1:36 AM -40.0 °F -71.6 °F - N/A% 29.50 in 1.5 mi NNE 16.1 mph - N/A   Overcast
1:56 AM -40.0 °F -71.6 °F - N/A% 29.51 in 1.8 mi NNE 16.1 mph 20.7 mph N/A   Overcast
2:16 AM -40.0 °F -72.5 °F - N/A% 29.51 in 2.0 mi NNE 17.3 mph 20.7 mph N/A   Overcast
2:36 AM -40.0 °F -72.5 °F - N/A% 29.51 in 2.0 mi NNE 17.3 mph - N/A   Overcast
3:16 AM -40.0 °F -69.5 °F - N/A% 29.51 in 3.0 mi NNE 13.8 mph - N/A   Overcast
3:36 AM -38.2 °F -68.3 °F - N/A% 29.51 in 2.5 mi NNE 15.0 mph - N/A   Overcast
3:56 AM -38.2 °F -67.3 °F - N/A% 29.51 in 2.0 mi NNE 13.8 mph - N/A   Overcast
4:16 AM -38.2 °F -69.2 °F - N/A% 29.51 in 2.0 mi NNE 16.1 mph - N/A   Overcast
4:36 AM -38.2 °F -68.3 °F - N/A% 29.51 in 1.8 mi NNE 15.0 mph - N/A   Overcast
4:56 AM -38.2 °F -68.3 °F - N/A% 29.51 in 2.0 mi NNE 15.0 mph - N/A   Overcast
5:16 AM -38.2 °F -69.2 °F - N/A% 29.52 in 2.0 mi NNE 16.1 mph - N/A   Overcast
5:36 AM -38.2 °F -68.3 °F - N/A% 29.51 in 2.0 mi NNE 15.0 mph - N/A   Overcast
5:56 AM -38.2 °F -68.3 °F - N/A% 29.52 in 2.0 mi NNE 15.0 mph 18.4 mph N/A   Overcast
6:16 AM -38.2 °F -69.2 °F - N/A% 29.52 in 2.5 mi NNE 16.1 mph - N/A   Overcast
6:36 AM -38.2 °F -68.3 °F - N/A% 29.52 in 3.0 mi NE 15.0 mph - N/A   Overcast
6:56 AM -38.2 °F -68.3 °F - N/A% 29.52 in 2.5 mi NE 15.0 mph - N/A   Overcast
7:16 AM -38.2 °F -68.3 °F - N/A% 29.53 in 3.0 mi NE 15.0 mph 18.4 mph N/A   Overcast
7:36 AM -38.2 °F -68.3 °F - N/A% 29.53 in 3.0 mi NNE 15.0 mph 19.6 mph N/A   Overcast
7:56 AM -38.2 °F -67.3 °F - N/A% 29.53 in 5.0 mi NE 13.8 mph 19.6 mph N/A   Overcast
8:16 AM -38.2 °F -67.3 °F - N/A% 29.53 in 4.0 mi NNE 13.8 mph 20.7 mph N/A   Mostly Cloudy
8:36 AM -38.2 °F -66.2 °F - N/A% 29.54 in 3.0 mi NNE 12.7 mph 19.6 mph N/A   Mostly Cloudy
8:56 AM -38.2 °F -66.2 °F - N/A% 29.54 in 5.0 mi NNE 12.7 mph - N/A   Mostly Cloudy
9:16 AM -38.2 °F -66.2 °F - N/A% 29.54 in 6.0 mi NNE 12.7 mph 18.4 mph N/A   Overcast
9:36 AM -38.2 °F -66.2 °F - N/A% 29.55 in 4.0 mi NNE 12.7 mph - N/A   Overcast
9:56 AM -38.2 °F -66.2 °F - N/A% 29.55 in 2.5 mi NNE 12.7 mph 18.4 mph N/A   Overcast
10:16 AM -38.2 °F -67.3 °F - N/A% 29.55 in 2.5 mi NNE 13.8 mph - N/A   Overcast
10:36 AM -38.2 °F -67.3 °F - N/A% 29.55 in 2.5 mi NNE 13.8 mph - N/A   Overcast
10:56 AM -38.2 °F -66.2 °F - N/A% 29.55 in 2.5 mi NNE 12.7 mph - N/A   Overcast
11:16 AM -38.2 °F -66.2 °F - N/A% 29.55 in 4.0 mi NE 12.7 mph 16.1 mph N/A   Overcast
11:36 AM -38.2 °F -67.3 °F - N/A% 29.55 in 7.0 mi NE 13.8 mph - N/A   Overcast
11:56 AM -38.2 °F -63.7 °F - N/A% 29.55 in 5.0 mi NE 10.4 mph - N/A   Mostly Cloudy
12:16 PM -38.2 °F -63.7 °F - N/A% 29.55 in 10.0 mi NE 10.4 mph - N/A   Partly Cloudy
12:36 PM -38.2 °F -66.2 °F - N/A% 29.55 in 10.0 mi NNE 12.7 mph - N/A   Clear
12:56 PM -38.2 °F -66.2 °F - N/A% 29.56 in 10.0 mi NE 12.7 mph - N/A   Mostly Cloudy
1:16 PM -36.4 °F -60.1 °F - N/A% 29.55 in 8.0 mi NE 9.2 mph - N/A   Overcast
1:36 PM -36.4 °F -63.9 °F - N/A% 29.56 in 3.0 mi NE 12.7 mph - N/A   Overcast
1:56 PM -36.4 °F -62.7 °F - N/A% 29.55 in 3.0 mi NE 11.5 mph - N/A   Overcast
2:16 PM -36.4 °F -63.9 °F - N/A% 29.56 in 1.8 mi NNE 12.7 mph - N/A   Overcast
2:36 PM -36.4 °F -62.7 °F - N/A% 29.55 in 1.5 mi NNE 11.5 mph - N/A   Overcast
2:56 PM -36.4 °F -63.9 °F - N/A% 29.55 in 1.5 mi NNE 12.7 mph - N/A   Overcast
3:16 PM -36.4 °F -61.5 °F - N/A% 29.55 in 2.0 mi NE 10.4 mph - N/A   Overcast
3:36 PM -36.4 °F -63.9 °F - N/A% 29.55 in 2.0 mi NNE 12.7 mph - N/A   Overcast
3:56 PM -36.4 °F -63.9 °F - N/A% 29.54 in 3.0 mi NNE 12.7 mph - N/A   Overcast
4:16 PM -36.4 °F -62.7 °F - N/A% 29.54 in 3.0 mi NNE 11.5 mph - N/A   Overcast
4:36 PM -36.4 °F -62.7 °F - N/A% 29.55 in 2.5 mi NNE 11.5 mph - N/A   Overcast
4:56 PM -36.4 °F -62.7 °F - N/A% 29.54 in 3.0 mi NNE 11.5 mph - N/A   Overcast
5:16 PM -36.4 °F -63.9 °F - N/A% 29.54 in 3.0 mi NNE 12.7 mph - N/A   Overcast
5:36 PM -36.4 °F -63.9 °F - N/A% 29.54 in 2.0 mi NNE 12.7 mph - N/A   Overcast
5:56 PM -36.4 °F -62.7 °F - N/A% 29.53 in 5.0 mi NNE 11.5 mph - N/A   Overcast
6:16 PM -36.4 °F -62.7 °F - N/A% 29.53 in 3.0 mi NNE 11.5 mph - N/A   Overcast
6:36 PM -36.4 °F -61.5 °F - N/A% 29.53 in 2.5 mi NNE 10.4 mph - N/A   Overcast
6:56 PM -36.4 °F -61.5 °F - N/A% 29.53 in 3.0 mi NNE 10.4 mph - N/A   Overcast
7:16 PM -36.4 °F -63.9 °F - N/A% 29.52 in 3.0 mi NNE 12.7 mph - N/A   Overcast
7:36 PM -36.4 °F -63.9 °F - N/A% 29.52 in 3.0 mi NNE 12.7 mph - N/A   Overcast
7:56 PM -36.4 °F -63.9 °F - N/A% 29.51 in 3.0 mi NNE 12.7 mph - N/A   Overcast
8:16 PM -36.4 °F -63.9 °F - N/A% 29.51 in 3.0 mi NNE 12.7 mph - N/A   Overcast
8:36 PM -36.4 °F -62.7 °F - N/A% 29.51 in 3.0 mi NNE 11.5 mph - N/A   Overcast
8:56 PM -36.4 °F -61.5 °F - N/A% 29.50 in 3.0 mi NNE 10.4 mph - N/A   Overcast
9:16 PM -36.4 °F -63.9 °F - N/A% 29.50 in 3.0 mi NNE 12.7 mph - N/A   Overcast
9:36 PM -36.4 °F -61.5 °F - N/A% 29.50 in 4.0 mi NNE 10.4 mph - N/A   Overcast
9:56 PM -36.4 °F -63.9 °F - N/A% 29.50 in 8.0 mi NNE 12.7 mph - N/A   Overcast
10:16 PM -36.4 °F -63.9 °F - N/A% 29.49 in 4.0 mi NNE 12.7 mph - N/A   Overcast
10:36 PM -36.4 °F -65.0 °F - N/A% 29.49 in 4.0 mi NNE 13.8 mph - N/A   Overcast
10:56 PM -36.4 °F -65.0 °F - N/A% 29.49 in 3.0 mi NNE 13.8 mph - N/A   Overcast
11:16 PM -34.6 °F -60.5 °F - N/A% 29.49 in 5.0 mi NNE 11.5 mph - N/A   Overcast
11:36 PM -34.6 °F -60.5 °F - N/A% 29.48 in 3.0 mi NNE 11.5 mph - N/A   Overcast
11:56 PM -34.6 °F -59.2 °F - N/A% 29.48 in 3.0 mi NNE 10.4 mph - N/A   Overcast